Location: Gellin
(53.4498°N, 14.3207°E)
Time: 00:23:06
(UTC+00:00)

FALCON 9 DEB - Pass Details

Date: 03 March 2021
Orbit: 372 x 387 km, 53.0° (Epoch: 11 April)

Event Time Altitude Azimuth Distance (km) Brightness Sun altitude
Rises 17:44:34 0° 266° (W) 2,290 9.0 -9.7°
Reaches altitude 10° 17:46:38 10° 266° (W) 1,434 7.4 -10.0°
Maximum altitude 17:49:51 85° 179° (S) 401 2.9 -10.5°
Enters shadow 17:52:08 18° 90° (E) 1,061 4.4 -10.8°
